Content
SEND FEEDBACK

Daily
Averages
Monthly
Summary
United States of America

RED BLUFF, CALIFORNIA


Home > North America > United States > California
Elevation: 344 feet     Latitude: 40 09N     Longitude: 122 15W

WEATHER
 
SELECT A DAY
Number of Records: 182,795;   Date Range: 1/1/95 - 7/7/14
 
SHARE

PRINT THIS DATA

[ ← Previous Day ]
WEATHER ALMANAC - APRIL 28, 2013
[ Next Day → ]
[ °C ]   °F
Weather ElementAverageHighLow
Temperature77.7 °F93.9 °F (4:54 pm)59 °F (1:54 am)
Dewpoint37.8 °F48.9 °F (1:54 am)28 °F (12:54 pm)
Humidity29.4 %69 % (1:54 am)11 % (12:54 pm)
Barometer29.95 in30.03 in (7:54 am)29.84 in (6:54 pm)
Wind Speed10.4 mph18.4 mph (2:54 pm)
Wind Gust25.3 mph (2:54 pm)
Weather ElementAverage
Visibility10 mi
Wind DirectionWNW (308.3 °)

Weather ElementTotal
Precipitation---
Cooling Degree Days11.5 (Base 65)
Growing Degree Days26.5 (Base 50)
Averaged from 23 records on April 28, 2013
WEATHER CONDITIONS BREAKOUT
WIND DIRECTION BREAKOUT
WEATHER BY HOUR - APRIL 28, 2013
[ °C ]   °F
Local TimeTemperatureDewpointHumidityBarometerVisibilityWind DirectionWind SpeedGust SpeedPrecipitationEventsConditions
1:54 AM59.0 °F48.9 °F69 %30.02 in10.0 miNNW (330°)4.6 mphClear
2:54 AM61.0 °F48.9 °F64 %30.01 in10.0 miNNW (340°)6.9 mphClear
3:54 AM60.1 °F46.9 °F62 %30.01 in10.0 miNNW (340°)6.9 mphClear
4:54 AM59.0 °F45.0 °F60 %30.01 in10.0 miNNW (330°)8.1 mphClear
5:54 AM60.8 °F39.2 °F45 %30.02 in10.0 miNW (320°)9.2 mphClear
6:54 AM61.0 °F44.1 °F54 %30.02 in10.0 miNorth (350°)6.9 mphClear
7:54 AM64.9 °F43.0 °F45 %30.03 in10.0 miSW (230°)12.7 mphClear
8:54 AM71.1 °F39.0 °F31 %30.03 in10.0 miNorthClear
9:54 AM78.1 °F37.0 °F23 %30.03 in10.0 miNorth (350°)12.7 mph19.6 mphClear
10:54 AM82.9 °F35.1 °F18 %30.02 in10.0 miNorth (360°)13.8 mphClear
11:54 AM86.0 °F35.1 °F16 %30.01 in10.0 miNorth (350°)10.4 mphClear
12:54 PM89.1 °F28.0 °F11 %29.98 in10.0 miNorth (350°)12.7 mph23.0 mphClear
1:54 PM91.0 °F32.0 °F12 %29.95 in10.0 miNNW (340°)11.5 mph23.0 mphClear
2:54 PM91.9 °F30.9 °F11 %29.93 in10.0 miNorth (350°)18.4 mph25.3 mphClear
3:54 PM93.0 °F32.0 °F12 %29.90 in10.0 miNNW (330°)9.2 mph21.9 mphClear
4:54 PM93.9 °F33.1 °F12 %29.88 in10.0 miNorth (360°)11.5 mph18.4 mphClear
5:54 PM93.0 °F33.1 °F12 %29.86 in10.0 miNorth (360°)15.0 mphClear
6:54 PM91.0 °F34.0 °F13 %29.84 in10.0 miNorth (10°)11.5 mphClear
7:54 PM84.0 °F37.0 °F19 %29.84 in10.0 miNorth (360°)5.8 mphClear
8:54 PM82.9 °F37.9 °F20 %29.86 in10.0 miNorth (350°)8.1 mphClear
9:54 PM79.0 °F37.9 °F23 %29.89 in10.0 miNW (320°)8.1 mphClear
10:54 PM78.1 °F37.0 °F23 %29.89 in10.0 miNNW (330°)11.5 mphClear
11:54 PM75.9 °F34.0 °F22 %29.91 in10.0 miNNW (330°)12.7 mphClear
Hourly data recorded from KRBL, located miles away from Red Bluff, California







STORIES FROM OUR PARTNERS